Location: Hillern
(53.0557°N, 9.8577°E)
Time: 17:17:25
(UTC+00:00)

Cosmos 1933 - Pass Details

Date: 19 May 2025
Orbit: 516 x 524 km, 82.5° (Epoch: 17 June)

Event Time Altitude Azimuth Distance (km) Brightness Sun altitude
Rises 19:58:24 0° 184° (S) 2,644 6.4 -5.3°
Reaches altitude 10° 20:00:32 10° 183° (S) 1,759 5.5 -5.6°
Maximum altitude 20:04:22 73° 99° (E) 552 3.2 -6.0°
Drops below altitude 10° 20:08:15 10° 14° (NNE) 1,769 6.4 -6.4°
Sets 20:10:24 0° 13° (NNE) 2,661 7.3 -6.6°
